Date,TemperatureHighF,TemperatureAvgF,TemperatureLowF,DewpointHighF,DewpointAvgF,DewpointLowF,HumidityHigh,HumidityAvg,HumidityLow,PressureMaxIn,PressureMinIn,WindSpeedMaxMPH,WindSpeedAvgMPH,GustSpeedMaxMPH,PrecipitationSumIn
2013-1-1,39,30,19,31,26,15,94,85,69,30.11,29.99,2,0,5,0.00
2013-1-2,30,19,9,20,14,6,91,81,59,30.21,30.08,2,0,4,0.00
2013-1-3,36,23,9,23,15,6,88,74,49,30.26,30.15,6,1,12,0.00
2013-1-4,36,30,26,24,21,17,76,68,52,30.29,30.23,9,2,16,0.01
2013-1-5,42,30,17,28,22,13,89,74,55,30.32,30.11,3,1,8,0.08
2013-1-6,39,33,27,32,27,21,86,78,73,30.30,29.98,8,2,19,0.02
2013-1-7,42,29,19,28,22,16,90,78,55,30.42,30.21,4,0,7,0.00
2013-1-8,54,32,21,35,26,17,90,78,48,30.27,30.17,3,0,6,0.00
2013-1-9,52,42,30,42,34,27,90,76,54,30.47,30.17,6,1,11,0.04
2013-1-10,43,36,28,37,31,26,94,84,74,30.48,30.09,2,0,6,0.04
2013-1-11,61,51,43,55,47,37,96,86,68,30.09,29.88,8,1,14,0.32
2013-1-12,65,58,49,62,55,47,97,91,79,30.01,29.80,5,1,11,0.01
2013-1-13,66,55,36,61,53,34,96,92,77,30.09,29.73,13,2,18,0.61
2013-1-14,36,28,24,34,23,20,91,81,69,30.41,30.09,5,1,10,0.01
2013-1-15,33,28,23,26,23,19,89,80,71,30.34,30.03,2,0,5,0.00
2013-1-16,36,33,31,29,26,25,83,77,66,30.05,29.93,4,1,8,0.00
2013-1-17,46,34,26,32,26,18,85,72,55,30.33,30.04,4,1,9,0.00
2013-1-18,40,29,18,24,18,13,86,65,40,30.47,30.18,6,1,14,0.00
2013-1-19,54,44,34,29,26,23,64,49,32,30.18,29.88,10,3,21,0.02
2013-1-20,47,34,15,35,16,-31,68,49,10,30.18,29.86,134,4,26,0.07
2013-1-21,24,21,10,14,10,-2,64,62,57,30.18,30.03,9,2,17,0.07
2013-1-22,22,12,6,2,-1,-3,72,56,37,30.31,30.17,8,2,14,0.00
2013-1-23,21,17,11,13,6,0,77,62,44,30.28,30.03,6,1,11,0.00
2013-1-24,28,19,12,16,8,4,84,63,39,30.51,30.05,6,1,14,0.00
2013-1-25,26,22,18,21,14,7,82,71,56,30.39,29.99,4,1,8,0.00
2013-1-26,36,25,16,22,18,11,87,73,49,30.39,30.06,4,1,8,0.04
2013-1-27,37,27,15,32,21,11,93,77,61,30.40,30.14,3,0,7,0.24
2013-1-28,51,46,34,50,44,32,98,94,87,30.14,29.99,6,2,13,0.33
2013-1-29,66,57,49,58,53,48,98,87,73,30.03,29.58,9,2,17,0.01
2013-1-30,67,54,33,58,48,26,96,82,71,29.58,29.26,11,4,24,0.81
2013-1-31,33,26,16,26,18,10,88,71,53,29.97,29.50,11,4,21,0.00
2013-2-1,20,11,6,10,2,-2,81,67,54,30.33,29.97,8,2,15,0.00
2013-2-2,31,22,7,25,17,2,87,82,74,30.27,29.94,6,1,9,0.00
2013-2-3,27,22,14,22,16,9,83,76,60,30.07,29.88,7,2,12,0.00
2013-2-4,34,25,12,32,20,8,92,83,65,30.07,29.78,4,0,10,0.00
2013-2-5,36,32,27,32,27,23,92,81,68,29.96,29.81,8,1,12,0.04
2013-2-6,37,33,26,30,26,21,84,75,62,30.23,29.96,5,0,8,0.00
2013-2-7,57,39,28,38,31,23,86,73,47,30.18,29.78,3,0,6,0.00
2013-2-8,50,37,29,43,31,21,91,79,61,30.27,29.76,10,2,15,0.19
2013-2-9,43,30,20,24,20,17,89,71,40,30.38,30.20,3,0,5,0.00
2013-2-10,53,41,26,44,30,20,86,66,39,30.20,29.77,6,1,17,0.01
2013-2-11,52,46,37,48,36,28,92,67,49,29.99,29.73,13,4,22,0.07
2013-2-12,50,37,30,29,26,23,82,67,37,30.09,29.89,6,1,10,0.00
2013-2-13,37,31,27,29,27,24,91,84,71,29.90,29.74,3,0,6,0.05
2013-2-14,52,38,27,40,32,24,95,81,56,29.96,29.78,8,2,19,0.01
2013-2-15,41,32,23,33,27,19,90,83,62,30.11,29.94,6,1,14,0.01
2013-2-16,28,21,14,22,15,10,91,78,60,30.10,29.99,7,2,14,0.00
2013-2-17,32,21,13,15,11,8,81,66,41,30.19,30.05,6,1,11,0.00
2013-2-18,59,39,17,40,24,11,82,57,36,30.17,29.73,11,2,21,0.06
2013-2-19,45,32,24,41,26,14,92,78,66,30.05,29.62,10,4,17,0.15
2013-2-20,26,22,17,18,14,10,80,70,59,30.25,30.05,8,2,15,0.00
2013-2-21,31,26,21,23,18,14,81,73,64,30.30,30.03,4,0,8,0.00
2013-2-22,42,34,28,38,31,22,97,90,79,30.04,29.86,9,1,14,0.11
2013-2-23,45,35,30,33,28,24,94,76,51,29.96,29.87,5,1,11,0.00
2013-2-24,42,31,25,26,23,20,87,72,50,30.12,29.90,4,1,10,0.00
2013-2-25,49,34,22,30,25,19,91,70,46,30.15,29.89,5,0,10,0.00
2013-2-26,45,40,34,44,35,16,95,84,64,29.89,29.38,97,1,97,0.60
2013-2-27,43,37,32,40,34,30,94,89,80,29.68,29.48,10,3,18,0.06
2013-2-28,33,33,32,31,31,30,93,92,90,29.65,29.65,0,0,0,0.00
2013-3-1,37,34,30,32,30,24,93,85,73,30.00,29.89,1,0,2,0.02
2013-3-2,29,28,27,23,20,20,79,74,71,30.03,29.97,4,0,8,0.00
2013-3-3,33,28,23,22,19,16,84,68,53,30.04,29.99,7,1,13,0.00
2013-3-4,47,31,18,29,21,15,89,68,36,30.12,29.98,4,0,7,0.02
2013-3-5,38,34,33,33,31,29,95,87,74,30.01,29.55,4,0,11,0.24
2013-3-6,37,32,29,32,29,27,95,89,79,30.20,29.57,0,0,0,0.04
2013-3-7,46,34,30,34,29,27,91,81,62,30.33,30.17,4,0,8,0.21
2013-3-8,52,34,23,29,24,21,92,71,37,30.43,30.32,2,0,5,0.01
2013-3-9,57,40,27,39,31,23,90,72,47,30.34,30.02,4,0,8,0.00
2013-3-10,69,56,41,44,37,31,76,49,26,30.02,29.82,7,1,11,0.05
2013-3-11,58,49,39,52,44,32,94,84,57,29.85,29.57,9,2,16,0.96
2013-3-12,44,37,32,32,30,26,90,76,60,30.00,29.81,7,2,13,0.01
2013-3-13,35,30,26,31,24,19,90,78,60,30.24,29.95,9,3,17,0.01
2013-3-14,45,32,20,24,20,16,88,65,36,30.30,30.11,5,1,11,0.00
2013-3-15,52,40,28,39,32,22,90,73,55,30.12,29.77,5,1,11,0.00
2013-3-16,58,45,35,50,40,31,96,84,69,30.01,29.59,8,1,13,0.11
2013-3-17,38,35,33,31,29,26,85,77,69,30.12,29.98,3,0,9,0.00
2013-3-18,50,40,33,48,38,28,97,92,74,29.98,29.58,8,1,16,0.64
2013-3-19,43,37,28,35,23,16,83,60,34,30.05,29.77,14,4,26,0.15
2013-3-20,38,31,25,22,17,11,68,56,42,30.04,29.91,9,3,17,0.00
2013-3-21,32,27,25,19,13,-2,60,55,50,29.99,29.89,6,2,12,0.00
2013-3-22,45,33,19,22,18,13,80,57,35,30.03,29.95,6,1,12,0.00
2013-3-23,55,38,27,27,23,18,83,58,26,30.03,29.86,4,0,8,0.00
2013-3-24,36,34,33,31,28,24,93,80,64,29.86,29.38,3,1,7,0.02
2013-3-25,36,33,30,32,30,28,94,90,84,29.87,29.38,4,0,9,0.02
2013-3-26,42,35,31,32,30,26,93,80,62,30.16,29.87,6,2,13,0.48
2013-3-27,43,36,30,31,27,24,84,71,54,30.24,30.15,6,2,11,0.00
2013-3-28,52,39,27,33,26,22,84,63,39,30.29,30.22,7,1,10,0.00
2013-3-29,58,41,27,34,30,25,92,67,35,30.27,30.16,4,0,10,0.00
2013-3-30,60,45,30,36,31,24,91,63,31,30.20,29.91,4,1,8,0.00
2013-3-31,58,49,42,48,42,35,92,77,55,29.91,29.73,7,1,12,0.05
2013-4-1,50,42,30,41,27,18,83,58,32,30.07,29.75,8,2,14,0.01
2013-4-2,52,35,21,22,18,13,81,53,22,30.20,30.07,7,1,12,0.00
2013-4-3,57,38,24,22,16,8,75,47,15,30.36,30.20,4,0,8,0.00
2013-4-4,62,42,30,26,18,8,63,42,12,30.30,29.94,4,0,8,0.00
2013-4-5,69,47,30,34,27,22,79,51,19,30.10,29.93,5,0,8,0.00
2013-4-6,71,50,34,37,28,22,73,45,20,30.18,29.87,5,1,11,0.00
2013-4-7,78,64,57,52,42,35,78,46,27,29.96,29.81,10,2,16,0.00
2013-4-8,75,61,48,56,52,46,96,73,49,29.97,29.85,8,1,15,0.08
2013-4-9,85,67,51,61,54,48,93,67,34,30.02,29.89,13,2,21,0.00
2013-4-10,86,72,62,66,59,56,84,66,43,29.93,29.78,10,2,16,0.00
2013-4-11,67,62,58,63,58,54,97,89,79,29.82,29.53,4,0,7,0.87
2013-4-12,58,47,41,58,40,31,99,77,55,29.88,29.49,8,2,17,0.13
2013-4-13,60,47,39,40,35,32,81,66,42,30.00,29.87,9,2,17,0.00
2013-4-14,76,53,34,47,38,31,90,63,29,30.03,29.86,4,0,8,0.00
2013-4-15,71,64,48,55,52,44,88,67,54,29.97,29.92,4,1,9,0.00
2013-4-16,82,64,53,64,57,50,97,81,51,30.14,29.92,11,1,21,0.38
2013-4-17,86,64,52,66,59,52,99,85,49,30.18,29.95,4,0,8,0.41
2013-4-18,86,73,61,65,58,50,95,63,37,29.96,29.60,11,3,19,0.00
2013-4-19,73,50,39,60,40,30,94,71,49,29.93,29.42,9,3,19,0.50
2013-4-20,53,42,34,34,30,25,84,64,37,30.35,29.92,8,2,15,0.00
2013-4-21,64,44,29,33,29,24,85,59,24,30.49,30.34,7,0,11,0.08
2013-4-22,78,54,36,44,35,28,83,53,20,30.33,30.10,5,0,8,0.00
2013-4-23,74,59,42,53,46,39,91,66,42,30.12,29.83,4,1,11,0.00
2013-4-24,65,51,36,56,44,33,94,79,57,30.17,29.75,8,2,19,0.65
2013-4-25,62,45,31,40,34,29,96,69,38,30.33,30.17,8,1,19,0.00
2013-4-26,68,48,31,42,33,26,93,63,24,30.42,30.30,3,0,5,0.00
2013-4-27,75,55,39,51,42,35,90,66,27,30.31,30.03,4,0,9,0.01
2013-4-28,69,59,54,61,55,50,96,88,69,30.03,29.80,4,0,11,0.15
2013-4-29,66,59,50,58,54,48,97,85,66,29.97,29.85,3,0,5,0.01
2013-4-30,87,63,46,62,53,45,99,74,32,30.05,29.95,4,0,8,0.00
2013-5-1,91,69,52,64,56,51,97,70,29,30.16,30.04,4,0,8,0.00
2013-5-2,80,65,53,58,55,51,94,73,41,30.20,30.07,4,0,7,0.00
2013-5-3,85,67,55,59,52,36,95,62,28,30.08,29.96,4,0,9,0.24
2013-5-4,77,64,56,50,46,39,71,52,32,30.00,29.92,4,0,8,0.00
2013-5-5,65,59,54,51,47,39,86,65,42,29.97,29.90,3,0,7,0.00
2013-5-6,63,57,53,59,54,50,97,92,86,29.95,29.89,3,0,8,0.51
2013-5-7,81,63,55,62,57,54,99,82,42,29.96,29.89,2,0,5,0.01
2013-5-8,82,64,53,61,56,52,99,76,41,29.98,29.90,2,0,6,0.00
2013-5-9,85,66,52,67,58,50,97,76,37,30.01,29.92,4,0,8,0.02
2013-5-10,63,61,59,60,58,57,95,91,87,29.98,29.89,5,0,10,0.31
2013-5-13,67,51,38,40,34,26,89,58,22,30.14,30.07,6,1,15,0.00
2013-5-14,85,62,41,58,46,36,84,60,37,30.10,29.80,4,1,11,0.00
2013-5-15,92,77,62,61,58,56,83,55,33,29.86,29.79,5,1,10,0.00
2013-5-16,84,70,62,66,62,56,97,77,52,29.97,29.83,2,0,6,0.51
2013-5-17,88,68,59,69,63,58,99,86,50,30.05,29.96,2,0,5,0.30
2013-5-18,86,70,62,70,65,62,99,87,54,30.05,29.95,1,0,3,0.01
2013-5-19,92,75,62,70,67,61,99,78,42,30.00,29.89,3,0,6,0.00
2013-5-20,92,75,65,73,68,64,99,81,47,29.99,29.87,4,0,9,0.00
2013-5-21,89,76,66,68,65,61,98,72,41,29.95,29.79,4,0,11,0.00
2013-5-22,84,70,62,70,63,60,97,80,50,29.84,29.72,5,0,12,0.38
2013-5-23,74,63,51,64,58,45,99,87,62,30.06,29.78,5,1,11,0.79
2013-5-24,71,55,45,47,41,34,86,62,28,30.28,30.06,4,1,8,0.00
2013-5-25,74,56,42,49,43,37,91,66,32,30.36,30.19,4,0,7,0.00
2013-5-26,80,61,47,51,46,35,91,61,22,30.28,30.16,4,0,7,0.00
2013-5-27,88,66,52,67,56,49,94,71,43,30.19,29.93,4,0,9,0.20
2013-5-28,89,74,64,68,63,58,92,69,44,30.00,29.92,4,0,10,0.01
2013-5-29,93,76,63,65,61,56,86,64,31,30.06,29.97,4,0,9,0.00
2013-5-30,95,76,64,72,66,63,96,73,42,30.14,29.99,3,0,6,0.00
2013-5-31,86,72,66,72,66,63,99,84,56,30.05,29.94,6,0,11,0.83
2013-6-1,87,74,66,72,68,66,99,84,54,29.96,29.76,4,0,11,0.00
2013-6-2,81,72,65,68,62,58,90,72,48,29.92,29.79,4,1,10,0.00
2013-6-3,75,62,53,58,53,50,88,73,51,30.04,29.91,2,0,5,0.00
2013-6-4,86,64,49,52,48,37,94,62,23,30.14,30.03,3,0,8,0.00
2013-6-5,91,70,55,64,55,48,86,62,34,30.08,29.85,2,0,4,0.00
2013-6-6,74,66,61,69,63,59,97,92,82,29.87,29.77,3,0,5,0.76
2013-6-7,85,66,58,62,58,55,98,79,39,29.89,29.79,2,0,5,0.00
2013-6-8,84,65,54,64,58,52,95,80,50,30.03,29.87,2,0,4,0.00
2013-6-9,86,71,60,69,64,59,98,80,46,30.06,29.89,2,0,5,0.00
2013-6-10,85,69,64,69,65,61,99,87,49,29.90,29.77,6,0,15,0.84
2013-6-11,91,74,63,69,66,63,99,78,42,29.95,29.83,3,0,7,0.01
2013-6-12,95,80,68,78,71,65,93,76,53,29.92,29.72,3,0,7,0.00
2013-6-13,82,72,65,73,64,54,99,78,47,29.90,29.60,4,1,10,1.09
2013-6-14,87,69,58,63,58,54,90,70,39,30.04,29.90,4,0,7,0.00
2013-6-15,89,70,57,68,62,56,97,77,38,30.11,29.94,3,0,5,0.00
2013-6-16,82,72,66,69,66,63,94,81,62,30.00,29.93,4,0,10,0.09
2013-6-17,94,75,66,73,68,64,99,82,40,29.97,29.87,2,0,5,0.00
2013-6-18,90,73,65,75,66,59,99,80,50,29.99,29.85,3,0,6,1.30
2013-6-19,90,69,57,60,56,52,93,67,32,30.11,29.99,2,0,4,0.00
2013-6-20,95,71,57,67,60,54,93,71,27,30.19,30.10,2,0,4,0.00
2013-6-21,95,74,60,71,64,58,95,75,39,30.21,30.10,2,0,4,0.00
2013-6-22,93,76,65,77,69,64,98,79,50,30.16,30.04,2,0,6,0.04
2013-6-23,98,77,66,75,68,62,99,78,40,30.13,30.03,3,0,8,0.00
2013-6-24,92,76,65,74,68,63,99,79,40,30.13,30.01,3,0,7,0.00
2013-6-25,96,80,68,76,71,67,99,77,45,30.06,29.87,4,0,10,0.00
2013-6-26,90,74,68,77,70,66,99,87,63,29.93,29.77,4,0,8,0.51
2013-6-27,92,75,68,74,70,68,99,85,53,29.79,29.68,3,0,8,0.12
2013-6-28,90,74,64,70,66,54,97,79,38,29.69,29.58,8,1,14,0.11
2013-6-29,86,70,62,68,64,62,99,84,53,29.66,29.57,4,0,8,0.01
2013-6-30,90,71,65,69,65,62,98,83,43,29.83,29.65,2,0,5,0.02
2013-7-1,82,69,64,71,66,61,96,89,64,29.91,29.81,2,0,4,0.07
2013-7-2,93,74,65,72,68,65,99,83,46,30.01,29.90,2,0,4,0.00
2013-7-3,87,74,67,73,69,66,99,85,58,30.11,30.00,2,0,4,0.01
2013-7-4,72,70,68,72,70,68,99,98,91,30.15,30.07,2,0,5,1.33
2013-7-5,85,72,66,74,69,66,99,93,68,30.14,30.06,2,0,4,0.14
2013-7-6,80,72,68,78,70,67,99,96,86,30.12,30.02,3,0,7,1.04
2013-7-7,88,72,65,72,68,65,99,86,52,30.10,30.01,3,0,5,0.00
2013-7-8,89,76,68,75,71,67,99,85,61,30.12,30.03,3,0,7,0.00
2013-7-9,92,79,72,77,73,68,99,83,54,30.07,29.98,6,0,11,0.13
2013-7-10,92,76,67,79,73,66,99,90,62,29.99,29.83,11,0,22,0.18
2013-7-11,87,72,62,70,65,58,99,80,48,30.01,29.92,2,0,5,0.00
2013-7-12,89,70,59,64,60,55,95,73,38,30.09,30.01,2,0,6,0.00
2013-7-13,93,75,63,70,65,60,92,74,42,30.14,30.05,3,0,5,0.00
2013-7-14,98,79,68,77,71,66,95,78,50,30.22,30.12,2,0,4,0.00
2013-7-15,101,81,70,76,72,68,99,78,39,30.30,30.22,2,0,4,0.00
2013-7-16,99,80,71,79,74,70,99,85,44,30.33,30.24,2,0,4,0.00
2013-7-17,100,81,72,79,75,72,99,83,42,30.32,30.18,2,0,4,0.00
2013-7-18,102,82,72,79,74,68,99,79,37,30.20,30.02,4,0,5,0.00
2013-7-19,95,79,71,78,74,68,99,86,52,30.05,29.89,4,0,11,0.30
2013-7-20,88,76,70,76,73,67,99,90,64,29.92,29.85,4,0,9,0.33
2013-7-21,94,76,68,78,72,68,99,89,54,29.97,29.88,2,0,3,0.01
2013-7-22,77,72,69,76,72,69,99,97,85,29.92,29.76,2,0,4,0.64
2013-7-23,88,75,68,78,71,65,99,87,64,29.82,29.73,4,0,7,0.02
2013-7-24,86,69,59,66,60,55,89,73,42,29.99,29.81,2,0,6,0.00
2013-7-25,88,67,55,61,56,53,95,73,35,30.07,29.99,2,0,4,0.00
2013-7-26,88,69,56,67,60,55,99,78,38,30.08,29.96,3,0,4,0.00
2013-7-27,83,68,63,70,63,56,99,85,50,29.96,29.82,4,0,8,0.52
2013-7-28,79,64,55,57,54,50,97,73,40,30.03,29.88,5,1,9,0.00
2013-7-29,85,66,54,60,56,52,97,74,40,30.17,30.03,4,0,10,0.00
2013-7-30,81,67,57,68,62,56,99,84,49,30.22,30.11,3,0,4,0.00
2013-7-31,77,69,65,70,67,64,99,92,78,30.11,29.93,1,0,2,0.01
2013-8-1,78,69,62,69,65,59,99,90,54,29.97,29.90,2,0,6,0.09
2013-8-2,88,71,58,67,62,57,99,77,44,30.00,29.93,4,0,9,0.00
2013-8-3,86,71,64,71,67,62,99,87,49,30.01,29.95,4,0,6,0.14
2013-8-4,86,69,59,63,58,53,96,72,34,30.12,30.01,4,0,7,0.00
2013-8-5,88,67,56,66,60,56,99,80,40,30.11,29.97,2,0,4,0.01
2013-8-6,89,71,59,72,65,59,99,83,50,29.98,29.92,2,0,4,0.00
2013-8-7,90,75,67,76,71,66,99,88,60,29.94,29.87,3,0,6,0.00
2013-8-8,84,74,69,78,73,69,99,96,78,29.95,29.89,2,0,4,1.11
2013-8-9,88,74,69,75,72,-32,99,93,59,30.02,29.89,2,0,98,0.21
2013-8-10,89,74,66,75,70,66,99,88,51,30.11,30.02,2,0,4,0.00
2013-8-11,91,75,65,76,69,65,99,84,49,30.09,30.02,3,0,6,0.00
2013-8-12,93,74,64,75,68,61,99,84,39,30.07,29.87,3,0,5,0.00
2013-8-13,80,71,58,71,63,50,99,76,49,30.04,29.83,4,1,10,0.01
2013-8-14,82,61,53,55,51,47,92,72,34,30.15,30.04,4,0,6,0.00
2013-8-15,86,63,50,60,54,49,99,78,35,30.16,30.07,2,0,5,0.00
2013-8-16,86,67,55,62,57,53,95,74,36,30.15,30.09,2,0,4,0.00
2013-8-17,90,69,56,67,60,54,94,77,40,30.17,30.11,2,0,4,0.00
2013-8-18,88,70,60,69,63,60,99,82,49,30.17,30.08,2,0,5,0.00
2013-8-19,93,71,60,73,64,58,99,81,35,30.13,30.06,3,0,4,0.00
2013-8-20,97,73,61,73,65,61,99,81,37,30.17,30.08,2,0,4,0.00
2013-8-21,93,73,65,78,69,64,99,90,50,30.16,30.04,2,0,5,0.17
2013-8-22,86,73,66,73,69,66,99,90,57,30.10,30.01,4,0,8,0.12
2013-8-23,95,74,66,72,68,63,99,83,41,30.15,30.02,2,0,4,0.00
2013-8-24,92,71,59,71,63,57,94,79,41,30.25,30.14,2,0,5,0.00
2013-8-25,97,72,60,70,62,55,99,76,31,30.32,30.20,2,0,5,0.00
2013-8-26,92,74,62,73,67,61,99,81,47,30.24,30.06,4,0,10,0.01
2013-8-27,93,78,68,78,72,67,99,84,55,30.06,29.95,4,0,8,0.00
2013-8-28,96,81,73,78,74,71,97,79,51,29.96,29.87,4,1,11,0.00
2013-8-29,74,71,68,72,71,68,99,99,93,30.02,29.96,1,0,2,0.00
2013-8-30,72,72,72,71,71,71,99,99,99,30.02,30.02,0,0,2,0.00
2013-8-31,72,72,72,71,71,71,99,99,99,30.02,30.02,0,0,2,0.00
2013-9-1,72,72,72,71,71,71,99,99,99,30.02,30.02,0,0,2,0.00
2013-9-2,72,72,72,71,71,71,99,99,99,30.02,30.02,0,0,2,0.00
2013-9-3,72,72,72,71,71,71,99,99,99,30.02,30.02,0,0,2,0.00
2013-9-4,72,72,72,71,71,71,99,99,99,30.02,30.02,0,0,2,0.00
2013-9-5,72,72,72,71,71,71,99,99,99,30.02,30.02,0,0,2,0.00
2013-9-6,72,72,72,71,71,71,99,99,99,30.02,30.02,0,0,2,0.00
2013-9-7,72,72,72,71,71,71,99,99,99,30.02,30.02,0,0,2,0.00
2013-9-8,72,72,72,71,71,71,99,99,99,30.02,30.02,0,0,2,0.00
2013-9-9,72,72,72,71,71,71,99,99,99,30.02,30.02,0,0,2,0.00
2013-9-10,72,72,72,71,71,71,99,99,99,30.02,30.02,0,0,2,0.00
2013-9-11,72,72,72,71,71,71,99,99,99,30.02,30.02,0,0,2,0.00
2013-9-12,83,72,64,71,70,62,99,95,62,30.02,29.84,4,0,9,0.76
2013-9-13,68,59,51,63,50,44,98,75,46,30.07,29.90,5,0,12,0.00
2013-9-14,84,57,44,51,46,40,99,73,23,30.16,30.06,2,0,5,0.00
2013-9-15,85,61,46,58,52,45,99,76,33,30.13,30.00,4,0,8,0.06
2013-9-16,82,63,55,61,57,52,99,83,41,30.26,30.06,2,0,4,0.04
2013-9-17,86,62,49,58,53,48,99,76,32,30.30,30.15,2,0,4,0.00
2013-9-18,90,73,57,65,60,53,89,66,33,30.16,30.03,3,0,6,0.00
2013-9-19,88,69,64,72,67,64,99,94,54,30.07,29.95,3,0,4,0.13
2013-9-20,91,75,66,73,69,65,99,83,51,29.99,29.79,4,0,11,0.53
2013-9-25,59,55,53,59,55,53,99,99,99,29.92,29.88,0,0,1,0.00
2013-9-26,67,53,50,67,53,50,99,99,99,30.06,29.91,0,0,1,0.00
2013-9-27,90,63,50,90,63,49,99,99,99,30.16,30.06,0,0,1,0.00
2013-9-28,75,64,50,75,63,50,99,99,99,30.17,30.04,0,0,0,0.00
2013-9-29,75,75,75,75,75,75,99,99,99,30.05,29.99,0,0,0,0.00
2013-9-30,75,75,75,75,75,75,99,99,99,30.01,29.94,0,0,0,0.00
2013-10-1,75,75,75,75,75,75,99,99,99,30.07,29.99,0,0,0,0.00
2013-10-2,75,75,75,75,75,75,99,99,99,30.10,30.02,0,0,0,0.00
2013-10-3,81,74,0,75,73,50,99,98,34,30.08,29.83,0,0,2,0.00
2013-10-4,86,70,63,77,68,62,99,93,68,29.91,29.83,3,0,5,0.07
2013-10-5,81,70,63,76,69,63,99,96,78,29.88,29.76,4,0,8,0.26
2013-10-6,72,64,53,71,64,53,99,98,90,29.77,29.53,4,0,9,1.65
2013-10-7,68,52,44,54,47,43,99,84,47,29.96,29.62,4,1,10,0.01
2013-10-8,80,55,42,56,47,42,99,80,28,30.08,29.96,3,0,6,0.00
2013-10-9,86,58,47,54,48,44,93,75,24,30.05,29.97,2,0,5,0.00
2013-10-10,50,48,43,49,48,43,99,97,91,29.99,29.96,0,0,2,0.00
2013-10-11,50,50,50,49,49,49,97,97,97,29.99,29.99,0,0,2,0.00
2013-10-12,50,50,50,49,49,49,97,97,97,29.99,29.99,0,0,2,0.00
2013-10-13,82,65,50,63,56,47,99,76,38,30.10,29.99,4,0,6,0.00
2013-10-14,84,58,47,54,48,42,91,72,25,30.13,29.99,2,0,6,0.00
2013-10-15,76,61,51,66,58,48,99,90,69,30.00,29.75,2,0,4,0.00
2013-10-16,68,61,50,64,58,46,99,89,58,29.77,29.70,3,0,7,0.11
2013-10-17,58,48,42,51,45,41,99,91,78,29.78,29.66,4,0,8,0.08
2013-10-18,73,51,41,52,44,40,99,82,37,29.84,29.74,3,0,10,0.00
2013-10-19,51,46,38,47,43,37,98,90,72,29.78,29.63,4,0,11,0.13
2013-10-20,70,48,36,47,41,36,99,81,40,29.83,29.77,3,0,8,0.01
2013-10-21,71,52,40,49,43,38,97,74,37,29.81,29.69,4,0,11,0.01
2013-10-22,60,44,32,44,33,24,91,67,28,29.84,29.65,4,0,10,0.04
2013-10-23,48,41,35,40,36,30,99,84,60,29.82,29.56,4,0,8,0.19
2013-10-24,40,40,38,35,34,32,87,81,74,29.89,29.81,2,1,5,0.00
2013-10-25,40,40,40,35,35,35,80,80,80,29.89,29.89,2,2,5,0.00
2013-10-26,40,40,40,35,35,35,80,80,80,29.89,29.89,2,2,5,0.00
2013-10-27,40,40,40,35,35,35,80,80,80,29.89,29.89,2,2,5,0.00
2013-10-28,40,40,40,35,35,35,80,80,80,29.89,29.89,2,2,5,0.00
2013-10-29,40,40,40,35,35,35,80,80,80,29.89,29.89,2,2,5,0.00
2013-10-30,40,40,40,35,35,35,80,80,80,29.89,29.89,2,2,5,0.00
2013-10-31,40,40,40,35,35,35,80,80,80,29.89,29.89,2,2,5,0.00
2013-11-1,40,40,40,35,35,35,80,80,80,29.89,29.89,2,2,5,0.00
2013-11-2,40,40,40,35,35,35,80,80,80,29.89,29.89,2,2,5,0.00
2013-11-3,40,40,40,35,35,35,80,80,80,29.89,29.89,2,2,5,0.00
2013-11-4,40,40,40,35,35,35,80,80,80,29.89,29.89,2,2,5,0.00
2013-11-5,40,40,40,35,35,35,80,80,80,29.89,29.89,2,2,5,0.00
2013-11-6,40,40,40,35,35,35,80,80,80,29.89,29.89,2,2,5,0.00
2013-11-7,40,40,40,35,35,35,80,80,80,29.89,29.89,2,2,5,0.00
2013-11-8,40,40,40,35,35,35,80,80,80,29.89,29.89,2,2,5,0.00
2013-11-9,65,46,40,40,36,35,80,70,33,29.99,29.80,7,2,20,1.41
2013-11-10,54,43,30,41,32,28,93,68,39,30.26,29.99,8,1,17,0.00
2013-11-11,51,40,29,44,35,27,97,83,51,30.22,29.99,4,1,9,0.13
2013-11-12,43,30,23,33,24,20,98,80,45,30.50,30.16,4,0,11,0.13
2013-11-13,46,30,20,24,21,17,95,73,34,30.52,30.29,4,0,8,0.01
2013-11-14,60,39,25,26,21,13,84,55,17,30.29,30.07,5,1,12,0.00
2013-11-15,52,43,32,42,30,22,85,62,39,30.10,30.05,4,0,10,0.00
2013-11-16,61,52,41,56,49,38,94,89,84,30.11,29.89,4,1,11,0.00
2013-11-17,63,59,51,63,56,40,99,90,62,29.89,29.49,8,2,25,0.63
2013-11-18,56,46,33,41,35,28,86,69,45,30.14,29.75,9,2,21,0.00
2013-11-19,51,35,27,32,28,26,96,78,43,30.30,30.14,2,0,6,0.00
2013-11-20,58,38,29,35,30,25,88,75,40,30.29,30.18,3,0,8,0.00
2013-11-21,60,48,37,48,41,33,94,79,58,30.29,30.15,4,0,8,0.06
2013-11-22,53,48,37,53,46,31,99,92,78,30.33,30.13,5,1,11,0.17
2013-11-23,40,30,20,32,23,10,96,76,50,30.48,30.27,7,1,14,0.00
2013-11-24,32,20,12,14,11,8,86,70,42,30.60,30.44,4,0,8,0.00
2013-11-25,37,28,15,29,18,12,88,67,42,30.45,30.13,6,1,11,0.00
2013-11-26,36,33,32,34,31,28,97,92,85,30.16,29.87,3,0,5,0.05
2013-11-27,33,28,22,30,20,16,88,74,54,30.22,29.85,8,2,16,0.01
2013-11-28,39,25,18,18,16,13,86,69,40,30.39,30.22,5,1,12,0.00
2013-11-29,47,28,18,27,20,16,95,75,42,30.57,30.39,3,0,6,0.00
2013-11-30,34,25,23,28,21,20,87,86,76,30.47,30.14,0,0,1,0.00
2013-12-1,55,39,30,37,32,26,90,76,49,30.14,29.93,4,0,10,0.00
2013-12-2,57,41,33,42,36,31,96,84,55,29.93,29.78,2,0,4,0.04
2013-12-3,55,42,35,50,41,35,99,96,82,29.87,29.77,2,0,4,0.01
2013-12-4,62,52,40,58,50,40,99,94,84,29.87,29.72,4,0,11,0.00
2013-12-5,62,51,32,60,49,30,99,92,84,30.12,29.75,6,2,12,0.22
2013-12-6,32,29,26,30,28,25,97,95,92,30.34,30.09,0,0,0,0.00
2013-12-7,43,23,12,25,18,11,96,82,45,30.53,30.33,0,0,0,0.05
2013-12-8,32,25,15,32,22,13,99,89,81,30.47,29.97,0,0,0,0.00
2013-12-9,33,30,23,33,27,18,99,89,78,30.18,29.94,0,0,0,0.00
2013-12-10,33,23,17,19,16,9,93,74,44,30.30,30.09,0,0,0,0.00
2013-12-11,42,21,7,23,14,3,89,75,45,30.44,30.22,7,1,14,0.01
2013-12-12,28,16,2,11,5,-2,88,65,30,30.48,30.27,4,1,11,0.00
2013-12-13,44,27,13,30,17,7,90,68,39,30.28,30.12,4,0,8,0.02
2013-12-14,37,34,30,37,33,30,99,98,90,30.13,29.68,5,0,11,0.43
2013-12-15,34,27,25,30,23,17,99,85,62,30.07,29.82,0,0,0,0.00
2013-12-16,31,27,25,26,24,21,96,90,80,30.09,29.94,0,0,0,0.00
2013-12-17,34,30,27,32,27,24,99,89,76,30.11,29.93,8,0,15,0.00
2013-12-18,40,28,20,24,20,16,97,73,42,30.22,30.01,5,1,10,0.01
2013-12-19,52,42,32,37,30,21,67,63,54,30.05,29.99,4,1,10,0.02
2013-12-20,46,46,46,35,35,35,67,67,67,29.99,29.99,0,0,2,0.02
2013-12-21,66,53,46,64,47,35,99,80,67,29.99,29.46,10,1,21,1.39
2013-12-22,62,53,39,62,50,38,99,89,68,30.01,29.52,10,3,22,0.34
2013-12-23,39,32,26,37,26,19,97,80,69,30.33,30.01,7,2,14,0.01
2013-12-24,27,19,13,21,12,8,89,76,52,30.49,30.30,7,2,13,0.00
2013-12-25,33,26,16,25,17,13,88,71,50,30.44,30.14,4,0,8,0.00
2013-12-26,44,33,25,27,23,18,81,67,40,30.30,30.12,6,2,16,0.00
2013-12-27,36,34,26,27,26,21,84,73,70,30.35,30.27,4,2,7,0.00
2013-12-28,36,36,36,27,27,27,70,70,70,30.35,30.35,2,2,5,0.00
2013-12-29,36,36,36,27,27,27,70,70,70,30.35,30.35,2,2,5,0.00
2013-12-30,36,36,36,27,27,27,70,70,70,30.35,30.35,2,2,5,0.00
2013-12-31,36,36,36,27,27,27,70,70,70,30.35,30.35,2,2,5,0.00
2014-1-1,36,36,36,27,27,27,70,70,70,30.35,30.35,2,2,5,0.00
2014-1-2,36,36,36,27,27,27,70,70,70,30.35,30.35,2,2,5,0.00